This is the latest recevied weather packets stored in our database for station/object DM5AO-10. If no packets are shown the sender has not sent any weather packets the latest 10 day(s).
| Time | Temp. | Humidity | Pressure | Rain* | Wind** | Luminosity | Snow |
|---|---|---|---|---|---|---|---|
| 1787815658 | 22.78° C | 50% | 1020.8 hPa | - | - | - | - |
| 1787814757 | 22.22° C | 51% | 1020.8 hPa | - | - | - | - |
| 1787813856 | 21.67° C | 52% | 1020.8 hPa | - | - | - | - |
| 1787812955 | 21.11° C | 53% | 1020.8 hPa | - | - | - | - |
| 1787812055 | 21.11° C | 53% | 1020.8 hPa | - | - | - | - |
| 1787811154 | 21.11° C | 53% | 1020.7 hPa | - | - | - | - |
| 1787810253 | 21.11° C | 52% | 1020.5 hPa | - | - | - | - |
| 1787809352 | 21.11° C | 52% | 1020.5 hPa | - | - | - | - |
| 1787808451 | 21.11° C | 53% | 1020.7 hPa | - | - | - | - |
| 1787807550 | 21.11° C | 53% | 1020.6 hPa | - | - | - | - |
| 1787806650 | 20.56° C | 53% | 1020.7 hPa | - | - | - | - |
| 1787805749 | 21.11° C | 52% | 1020.7 hPa | - | - | - | - |
| 1787804848 | 21.11° C | 52% | 1020.7 hPa | - | - | - | - |
| 1787803947 | 20.56° C | 53% | 1020.7 hPa | - | - | - | - |
| 1787803045 | 20.56° C | 53% | 1020.6 hPa | - | - | - | - |
| 1787802145 | 21.11° C | 53% | 1020.6 hPa | - | - | - | - |
| 1787801244 | 20.56° C | 53% | 1020.9 hPa | - | - | - | - |
| 1787800343 | 21.11° C | 52% | 1020.8 hPa | - | - | - | - |
| 1787799442 | 21.11° C | 52% | 1020.8 hPa | - | - | - | - |
| 1787798541 | 21.11° C | 52% | 1020.9 hPa | - | - | - | - |
| 1787797641 | 21.67° C | 51% | 1020.9 hPa | - | - | - | - |
| 1787796740 | 21.67° C | 51% | 1020.9 hPa | - | - | - | - |
| 1787795839 | 21.67° C | 51% | 1021.1 hPa | - | - | - | - |
| 1787794938 | 21.67° C | 51% | 1021.1 hPa | - | - | - | - |
| 1787794037 | 21.67° C | 50% | 1021.1 hPa | - | - | - | - |
* Rain since midnight (hover to see other rain measurements)
** Current wind speed in m/s (hover to see current wind gust speed)